This is the latest recevied weather packets stored in our database for station/object KI4BIY. If no packets are shown the sender has not sent any weather packets the latest 10 day(s).
| Time | Temp. | Humidity | Pressure | Rain* | Wind** | Luminosity | Snow |
|---|---|---|---|---|---|---|---|
| 1777484224 | 16.67° C | 99% | 1015.1 hPa | 0 mm | - | 132 W/m² | - |
| 1777483921 | 17.22° C | 99% | 1015.1 hPa | 0 mm | - | 156 W/m² | - |
| 1777483617 | 16.67° C | 99% | 1015.3 hPa | 0 mm | - | 179 W/m² | - |
| 1777483312 | 16.67° C | 99% | 1015.2 hPa | 0 mm | - | 142 W/m² | - |
| 1777483008 | 16.11° C | 99% | 1015.2 hPa | 0 mm | - | 204 W/m² | - |
| 1777482704 | 16.11° C | 99% | 1015.2 hPa | 0 mm | - | 199 W/m² | - |
| 1777482401 | 16.67° C | 99% | 1015.4 hPa | 0 mm | - | 288 W/m² | - |
| 1777482099 | 16.11° C | 99% | 1015.2 hPa | 0 mm | - | 276 W/m² | - |
| 1777481797 | 16.67° C | 99% | 1015.3 hPa | 0 mm | - | 298 W/m² | - |
| 1777481493 | 16.11° C | 99% | 1015.2 hPa | 0 mm | - | 441 W/m² | - |
| 1777481190 | 15.56° C | 99% | 1015.2 hPa | 0 mm | - | 353 W/m² | - |
| 1777480887 | 15° C | 99% | 1015.3 hPa | 0 mm | - | 121 W/m² | - |
| 1777480583 | 15° C | 99% | 1015.5 hPa | 0 mm | - | 38 W/m² | - |
| 1777480280 | 15.56° C | 99% | 1015.5 hPa | 0 mm | - | 50 W/m² | - |
| 1777479976 | 15.56° C | 99% | 1015 hPa | 0 mm | - | 58 W/m² | - |
| 1777479673 | 15.56° C | 99% | 1015.1 hPa | 0 mm | - | 72 W/m² | - |
| 1777479372 | 15.56° C | 99% | 1015.1 hPa | 0 mm | - | 90 W/m² | - |
| 1777479067 | 15.56° C | 99% | 1015.4 hPa | 0 mm | - | 78 W/m² | - |
| 1777478764 | 15.56° C | 99% | 1015.1 hPa | 0 mm | - | 101 W/m² | - |
| 1777478460 | 15.56° C | 99% | 1015.3 hPa | 0 mm | - | 111 W/m² | - |
| 1777478157 | 15.56° C | 99% | 1015.2 hPa | 0 mm | - | 81 W/m² | - |
| 1777477854 | 15.56° C | 99% | 1015.3 hPa | 0 mm | - | 63 W/m² | - |
| 1777477549 | 15.56° C | 99% | 1015.4 hPa | 0 mm | - | 84 W/m² | - |
| 1777477246 | 15.56° C | 99% | 1015.2 hPa | 0 mm | - | 63 W/m² | - |
| 1777476942 | 15.56° C | 99% | 1015.3 hPa | 0 mm | - | 37 W/m² | - |
* Rain latest hour (hover to see other rain measurements)
** Current wind speed in m/s (hover to see current wind gust speed)